Location: Olsztyn
(53.7767°N, 20.4765°E)
Time: 03:12:07
(UTC+01:00)

Transit 4A - All Passes

Search period start: 28 January 2022 00:00
Search period end: 07 February 2022 00:00
Orbit: 863 x 981 km, 66.8° (Epoch: 27 January)

Date Brightness Start Highest point End Pass type
(mag) Time Alt. Az. Time Alt. Az. Time Alt. Az.
28 Jan - 04:57:40 10° SE 05:00:58 15° ESE 05:04:19 10° ENE visible
28 Jan - 06:40:09 10° SSW 06:46:09 65° ESE 06:52:23 10° NE visible
28 Jan - 08:27:02 10° WSW 08:32:53 43° NNW 08:38:56 10° NE daylight
28 Jan - 10:15:43 10° WNW 10:20:51 26° N 10:26:07 10° NE daylight
28 Jan - 12:03:37 10° NW 12:09:09 30° NNE 12:14:46 10° E daylight
28 Jan - 13:50:17 10° NW 13:56:40 67° NE 14:03:04 10° SE daylight
28 Jan - 15:37:01 10° NW 15:42:47 37° WSW 15:48:33 10° S daylight
29 Jan - 05:05:27 10° SSE 05:09:53 21° ESE 05:14:24 10° ENE visible
29 Jan - 06:49:17 10° SW 06:55:25 84° SE 07:01:45 10° NE visible
29 Jan - 08:36:46 10° W 08:42:27 37° NNW 08:48:19 10° NE daylight
29 Jan - 10:25:29 10° NW 10:30:36 25° N 10:35:48 10° NE daylight
29 Jan - 12:13:03 10° NW 12:18:48 34° NNE 12:24:36 10° E daylight
29 Jan - 13:59:36 10° NW 14:06:02 84° NE 14:12:29 10° SE daylight
29 Jan - 15:46:36 10° NW 15:51:51 27° WSW 15:57:04 10° SSW daylight
30 Jan - 05:13:43 10° S 05:18:52 29° ESE 05:24:08 10° NE visible
30 Jan - 06:58:36 10° SW 07:04:44 77° NW 07:11:05 10° NE daylight
30 Jan - 08:46:33 10° W 08:52:04 32° NNW 08:57:44 10° NE daylight
30 Jan - 10:35:10 10° NW 10:40:20 25° N 10:45:33 10° ENE daylight
30 Jan - 12:22:26 10° NW 12:28:24 40° NNE 12:34:24 10° E daylight
30 Jan - 14:08:56 10° NW 14:15:20 77° SW 14:21:45 10° SSE daylight
30 Jan - 15:56:24 10° WNW 16:00:49 20° WSW 16:05:14 10° SSW daylight
31 Jan - 05:22:20 10° S 05:27:55 40° ESE 05:33:42 10° NE visible
31 Jan - 07:08:03 10° WSW 07:14:07 61° NW 07:20:25 10° NE daylight
31 Jan - 08:56:23 10° WNW 09:01:43 29° NNW 09:07:12 10° NE daylight
31 Jan - 10:44:47 10° NW 10:50:04 26° N 10:55:22 10° ENE daylight
31 Jan - 12:31:47 10° NW 12:37:56 47° NE 12:44:08 10° ESE daylight
31 Jan - 14:18:18 10° NW 14:24:35 59° WSW 14:30:51 10° SSE daylight
31 Jan - 16:06:37 10° WNW 16:09:44 14° W 16:12:49 10° SW daylight
01 Feb - 03:50:01 10° ESE 03:52:05 12° E 03:54:09 10° E visible
01 Feb - 05:31:09 10° SSW 05:37:03 54° ESE 05:43:10 10° NE visible
01 Feb - 07:17:37 10° WSW 07:23:35 49° NW 07:29:45 10° NE daylight
01 Feb - 09:06:12 10° WNW 09:11:26 27° N 09:16:46 10° NE daylight
01 Feb - 10:54:20 10° NW 10:59:45 28° NNE 11:05:14 10° ENE daylight
01 Feb - 12:41:06 10° NW 12:47:25 58° NE 12:53:45 10° ESE daylight
01 Feb - 14:27:44 10° NW 14:33:45 44° WSW 14:39:45 10° S daylight
02 Feb - 03:57:09 10° SE 04:00:57 17° ESE 04:04:48 10° ENE visible
02 Feb - 05:40:11 10° SSW 05:46:16 71° SE 05:52:33 10° NE visible
02 Feb - 07:27:18 10° W 07:33:07 41° NNW 07:39:07 10° NE daylight
02 Feb - 09:16:00 10° WNW 09:21:09 25° N 09:26:23 10° NE daylight
02 Feb - 11:03:48 10° NW 11:09:26 32° NNE 11:15:06 10° E daylight
02 Feb - 12:50:25 10° NW 12:56:50 73° NE 13:03:16 10° SE daylight
02 Feb - 14:37:14 10° NW 14:42:51 33° WSW 14:48:26 10° S daylight
03 Feb - 04:05:10 10° SSE 04:09:53 24° ESE 04:14:43 10° ENE visible
03 Feb - 05:49:23 10° SW 05:55:32 89° NW 06:01:55 10° NE visible
03 Feb - 07:37:03 10° W 07:42:42 35° NNW 07:48:30 10° NE daylight
03 Feb - 09:25:45 10° NW 09:30:53 25° N 09:36:06 10° NE daylight
03 Feb - 11:13:13 10° NW 11:19:03 36° NNE 11:24:56 10° E daylight
03 Feb - 12:59:44 10° NW 13:06:11 89° SW 13:12:37 10° SE daylight
03 Feb - 14:46:53 10° WNW 14:51:52 24° WSW 14:56:50 10° SSW daylight
04 Feb - 04:13:34 10° S 04:18:54 33° ESE 04:24:23 10° NE visible
04 Feb - 05:58:45 10° SW 06:04:53 71° NW 06:11:15 10° NE visible
04 Feb - 07:46:51 10° W 07:52:19 31° NNW 07:57:56 10° NE daylight
04 Feb - 09:35:25 10° NW 09:40:37 26° N 09:45:53 10° ENE daylight
04 Feb - 11:22:35 10° NW 11:28:38 42° NNE 11:34:42 10° ESE daylight
04 Feb - 13:09:05 10° NW 13:15:28 70° SW 13:21:50 10° SSE daylight
04 Feb - 14:56:48 10° WNW 15:00:49 18° WSW 15:04:51 10° SW daylight
05 Feb - 04:22:15 10° S 04:27:59 44° ESE 04:33:54 10° NE visible
05 Feb - 06:08:15 10° WSW 06:14:18 56° NW 06:20:34 10° NE visible
05 Feb - 07:56:41 10° WNW 08:02:00 28° NNW 08:07:26 10° NE daylight
05 Feb - 09:45:01 10° NW 09:50:21 27° NNE 09:55:43 10° ENE daylight
05 Feb - 11:31:55 10° NW 11:38:09 51° NE 11:44:24 10° ESE daylight
05 Feb - 13:18:28 10° NW 13:24:41 53° WSW 13:30:52 10° SSE daylight
05 Feb - 15:07:21 10° WNW 15:09:42 12° W 15:12:03 10° WSW daylight
06 Feb - 02:49:11 10° SE 02:52:03 14° E 02:54:57 10° ENE visible
06 Feb - 04:31:09 10° SSW 04:37:08 60° ESE 04:43:20 10° NE visible
06 Feb - 06:17:52 10° WSW 06:23:47 46° NW 06:29:55 10° NE visible
06 Feb - 08:06:30 10° WNW 08:11:42 26° N 08:17:01 10° NE daylight
06 Feb - 09:54:31 10° NW 10:00:02 29° NNE 10:05:35 10° ENE daylight
06 Feb - 11:41:14 10° NW 11:47:36 63° NE 11:53:58 10° ESE daylight
06 Feb - 13:27:55 10° NW 13:33:49 40° WSW 13:39:43 10° S daylight
